Location: Augsburg
(48.3836°N, 10.8929°E)
Time: 19:44:03
(UTC+01:00)

ISS - Pass Details

Date: 16 November 2017
Orbit: 401 x 407 km, 51.6° (Epoch: 25 November)

Event Time Altitude Azimuth Distance (km) Brightness Sun altitude
Exits shadow 05:38:26 30° 212° (SSW) 750 -2.7 -17.6°
Drops below altitude 10° 05:41:14 10° 153° (SSE) 1,448 -0.5 -17.2°
Sets 05:43:26 0° 142° (SE) 2,304 0.8 -16.8°
